Lid_Strength_Index
6 6 6 6 5 4 4 3 4 5 5 5 4 4 5 4 2 1 3 2 -0 -1 -1 -1 -2 -2 -2 -2 -2 -2 -2 -1 -2 -2 -2 -2 -2 -1 -1 -0 -0 0 1
6 6 6 5 5 4 3 3 5 6 6 5 4 4 4 4 2 1 1 1 0 0 -1 -1 -2 -2 -2 -2 -1 -2 -2 -2 -2 -2 -1 -1 -1 -0 -0 0 1 1 1
6 6 6 6 5 4 3 4 4 5 4 3 4 4 3 2 2 2 1 0 0 1 0 -1 -2 -1 -1 -2 -2 -2 -2 -2 -1 -1 -1 -1 -1 0 0 1 0 1 1
5 6 6 6 4 4 3 4 4 4 4 4 4 3 3 2 2 2 1 1 1 0 1 -1 -1 -1 -2 -2 -2 -2 -2 -2 -1 -1 -1 -1 -0 0 0 1 1 1 1
5 6 6 6 4 5 4 3 5 5 5 5 3 3 3 3 3 2 2 1 0 1 0 1 1 -0 -1 -2 -2 -2 -2 -2 -1 -1 -1 -0 -0 0 0 1 1 1 2
5 6 6 6 5 5 4 4 4 3 4 4 3 3 4 3 4 4 3 2 1 0 0 0 0 0 -0 -1 -2 -2 -2 -2 -1 -1 -1 -0 -0 -0 0 1 1 2 1
5 6 6 6 5 4 4 4 4 4 3 4 4 4 3 4 4 5 4 4 2 1 -0 -0 -1 -1 -1 -1 -2 -2 -2 -2 -2 -1 -1 -1 -0 0 0 1 0 1 1
5 6 6 6 5 5 4 3 4 5 5 5 5 5 5 4 4 5 5 5 4 2 1 1 0 0 -0 -1 -0 -2 -2 -2 -2 -1 -1 -0 0 1 1 -0 0 0 1
5 6 6 6 5 4 4 4 4 4 5 5 5 6 8 6 6 5 5 6 5 3 2 1 2 2 1 1 1 0 -1 -1 -2 -1 -1 -0 0 0 -0 -0 0 0 1
5 5 6 6 5 4 4 4 3 4 4 6 5 5 6 5 7 7 5 6 6 5 3 3 2 3 3 3 4 5 2 1 -0 -1 -1 -1 -0 -0 -1 -0 0 1 1
6 6 6 6 6 4 4 4 4 4 4 5 5 6 7 5 5 5 7 7 6 6 4 3 3 3 4 4 4 5 3 2 1 0 -0 -1 -1 -0 -0 0 1 1 1
6 6 6 6 5 4 4 4 4 4 4 4 5 5 6 6 6 7 8 8 8 7 5 4 4 4 4 5 7 7 4 2 1 1 1 -0 -1 -1 -0 -0 0 0 1
6 6 6 6 5 4 3 3 3 4 4 4 4 5 4 5 5 6 6 8 8 8 7 5 6 5 5 6 6 7 6 3 2 2 1 1 0 -0 -1 0 0 1 1
6 6 6 5 5 4 3 3 4 4 4 4 4 5 5 5 5 5 5 6 7 8 8 8 6 6 5 6 8 7 5 4 3 2 1 1 1 1 0 1 1 2 3
6 5 5 5 5 4 3 4 4 4 4 4 5 5 5 5 5 5 5 4 6 8 9 8 7 6 5 6 7 6 6 7 3 3 2 2 1 1 1 1 2 2 3
5 6 6 5 4 4 4 4 5 4 4 4 4 4 4 5 5 5 5 6 6 7 10 8 7 6 5 6 8 6 7 7 7 5 3 3 2 2 2 2 2 3 3
6 6 5 5 4 4 4 4 4 4 4 4 4 4 4 5 5 5 5 4 5 6 9 9 7 6 6 7 7 7 7 6 7 7 5 4 3 3 3 3 3 3 3
5 5 5 4 4 4 4 4 4 4 4 4 4 4 4 4 5 5 5 6 6 7 7 9 8 8 7 7 9 9 9 8 8 6 5 5 5 5 5 4 4 4 4
5 5 5 4 4 4 4 4 4 4 4 3 3 4 4 5 6 6 6 7 8 7 7 8 9 9 8 9 11 11 11 10 9 8 7 7 6 6 6 5 5 6 6
5 5 5 4 4 4 4 4 4 4 4 4 3 3 4 4 6 6 7 8 8 8 8 8 9 10 10 10 11 12 13 14 12 10 9 9 8 8 7 6 6 7 7
5 5 5 5 5 4 4 4 4 4 4 4 4 4 4 6 8 7 6 7 8 8 8 9 10 10 11 14 12 13 15 15 13 12 12 10 9 9 8 7 8 7 7
5 5 5 5 5 4 7 7 5 4 4 4 4 5 6 10 9 8 8 8 7 8 9 10 10 10 11 12 15 13 14 13 12 13 13 12 11 10 10 9 8 7 6
5 5 5 5 5 5 8 7 7 4 4 3 3 5 7 7 9 7 8 8 9 8 8 9 10 10 11 12 13 14 13 13 13 13 13 13 13 13 11 10 8 7 7
6 5 5 5 5 5 8 8 8 5 4 4 4 6 6 8 8 7 7 8 8 8 8 8 8 9 9 11 10 10 10 13 14 13 13 13 14 13 13 12 10 9 8
6 6 5 5 5 7 8 8 6 5 6 5 5 7 7 7 10 9 7 9 9 10 10 9 9 9 9 9 10 10 13 12 13 13 13 12 13 13 13 13 13 10 9
6 6 6 5 8 6 9 8 6 5 6 6 7 8 11 8 10 9 7 9 11 11 11 11 11 10 10 10 10 8 11 12 13 13 13 14 14 13 12 14 13 13 11